Wind_Speed
10 5 15 15 14 13 10 8 7 6 7 8 7 7 9 10 11 10 10 10 10 9 8 8 6 6 7 5 4 3 4 4 5 5 7 8 9 9 11 13 12 11 11
3 10 13 14 10 11 8 7 6 6 8 9 8 6 8 8 8 10 8 9 9 8 7 6 5 6 6 4 3 3 5 4 4 5 7 7 7 8 10 12 12 11 11
4 5 14 10 9 8 6 5 6 7 10 9 9 8 8 6 7 7 7 7 8 9 9 7 6 4 5 5 4 4 4 5 5 6 7 7 7 10 10 10 11 12 11
4 2 5 10 8 7 6 5 6 8 8 8 9 11 9 6 5 4 6 3 5 8 8 7 6 4 4 5 6 6 5 3 5 5 7 9 9 8 9 9 10 10 11
5 3 2 3 6 7 6 6 4 6 8 10 9 11 12 9 3 4 5 3 2 4 5 6 6 5 4 4 4 4 5 2 2 4 7 10 11 11 9 9 10 10 10
6 4 3 1 3 6 5 6 3 5 7 6 7 8 9 9 6 5 3 3 3 2 4 4 4 5 6 6 6 5 5 5 5 5 7 10 11 10 9 9 11 11 11
6 6 5 4 4 6 5 5 3 3 3 4 4 4 6 9 4 4 3 3 2 2 2 3 4 5 5 5 5 5 5 5 9 10 10 11 12 12 11 11 11 12 13
4 5 5 6 6 7 4 5 5 3 1 2 2 2 2 6 5 3 3 3 2 2 1 0 3 4 5 6 6 5 6 7 8 8 14 15 15 14 14 14 12 11 12
3 3 3 4 6 6 5 5 6 4 2 1 1 1 1 5 3 1 3 1 1 2 1 1 3 4 5 6 7 6 7 7 9 8 11 16 17 15 13 14 13 12 10
4 3 2 3 4 5 4 4 4 4 3 3 3 2 4 5 4 1 1 1 0 1 1 3 2 3 4 3 4 4 4 5 9 8 6 8 14 15 11 13 13 13 11
6 5 3 2 2 4 5 6 6 6 4 4 5 4 1 6 4 5 2 1 0 1 2 3 3 3 3 3 4 2 2 7 6 8 7 6 12 17 15 14 13 12 11
5 4 4 3 1 2 5 7 7 6 5 4 4 1 9 6 4 2 3 2 1 2 2 2 4 4 4 3 2 2 3 2 3 4 8 12 11 17 18 14 14 13 12
6 4 3 2 2 1 2 3 6 3 2 2 1 8 7 2 2 1 2 4 5 4 4 4 5 5 5 4 3 3 3 5 4 3 2 4 6 7 13 20 15 12 11
8 9 8 6 4 3 3 3 2 3 1 2 5 6 3 1 0 1 2 9 6 6 6 6 5 5 6 7 5 2 3 1 3 3 3 2 5 6 7 16 15 11 10
12 12 10 4 5 6 8 2 5 2 4 2 3 2 2 1 1 3 2 5 6 7 7 8 8 8 11 8 7 4 3 2 3 3 1 1 3 7 8 12 9 9 8
15 12 13 12 11 7 9 10 7 7 5 3 1 2 2 2 2 3 3 4 6 7 8 8 6 8 5 8 9 7 4 3 3 3 2 1 4 7 5 8 10 10 7
16 15 11 14 14 17 13 8 5 4 3 2 2 1 2 2 2 3 2 4 5 8 10 7 7 11 7 10 10 9 8 5 4 5 4 4 5 6 7 7 7 8 8
15 17 15 11 12 11 10 7 4 5 3 1 1 4 4 3 3 2 2 4 4 2 5 9 2 9 9 8 13 10 10 10 8 7 6 5 6 7 7 6 8 8 7
13 14 16 12 9 9 6 4 3 4 6 1 3 5 8 9 7 6 4 2 3 4 4 4 2 3 5 8 8 12 12 11 12 12 9 8 9 8 8 8 9 9 10
8 10 10 11 9 7 4 3 4 1 3 11 15 16 13 12 10 13 9 7 8 8 6 5 5 6 4 5 5 9 13 12 12 13 13 12 11 11 10 9 9 10 11
10 9 8 4 4 5 5 2 1 4 8 11 11 12 16 15 13 8 3 5 8 7 6 8 9 8 8 7 6 4 11 12 13 12 11 14 14 11 12 12 11 11 11
11 9 8 8 3 1 0 2 4 5 6 9 13 19 20 8 12 6 4 4 3 3 2 5 6 7 7 8 8 7 5 6 14 16 14 15 16 14 14 14 13 13 13
11 11 14 10 10 10 7 8 9 8 8 7 11 12 14 14 15 13 8 4 9 11 14 7 10 5 5 6 7 8 8 7 9 12 19 19 19 18 18 16 15 15 14
9 23 34 19 16 16 15 15 14 14 14 12 11 11 13 14 13 9 8 9 13 16 10 6 10 10 8 7 6 9 12 9 9 11 13 22 22 22 21 19 18 18 17
21 24 25 19 16 19 23 25 24 20 15 13 12 13 16 17 15 15 16 15 16 18 16 13 14 16 14 12 14 13 11 13 15 12 15 19 26 24 23 23 22 22 21
18 11 16 22 21 25 23 29 26 18 8 8 12 13 16 18 18 19 19 19 21 21 21 20 19 18 19 20 15 10 15 19 17 17 14 18 19 26 26 25 26 26 24
Wind_Direction
154 167 123 108 107 103 101 101 93 91 80 62 56 61 61 57 56 69 90 101 107 110 111 127 126 122 118 116 105 97 122 141 151 134 138 146 144 143 144 145 149 149 152
124 211 120 100 104 102 98 94 99 88 72 58 54 67 71 54 55 66 90 111 115 118 122 128 139 130 109 110 107 112 116 136 139 159 155 159 163 160 155 151 151 153 158
159 124 117 110 116 111 101 87 88 79 58 54 51 55 63 58 55 61 77 121 131 137 139 143 137 123 123 136 139 140 143 148 148 161 158 165 171 169 165 165 163 160 162
179 228 50 93 108 111 119 116 95 68 67 66 62 50 61 77 68 51 60 89 142 140 140 144 136 134 139 145 159 155 162 119 171 175 165 165 162 174 172 166 163 163 165
179 182 236 121 128 132 130 137 104 85 81 72 61 51 61 61 62 48 42 56 107 144 148 146 143 151 165 171 179 162 151 132 137 193 191 179 177 178 187 185 174 174 173
183 217 238 131 126 140 149 152 127 102 84 72 49 34 44 39 34 30 26 15 85 128 156 147 163 167 173 183 198 201 190 197 197 184 203 189 185 183 183 187 184 177 175
183 190 204 182 174 168 179 167 141 107 86 69 30 23 18 25 31 12 20 358 32 81 137 160 206 207 195 193 203 208 226 232 216 203 194 198 199 190 187 191 188 184 179
159 195 189 165 172 174 153 169 172 172 176 12 351 357 340 9 27 15 15 358 22 41 139 242 267 245 225 214 214 213 228 237 238 243 195 192 202 198 194 192 186 187 185
152 186 169 147 165 174 175 166 189 210 236 260 302 6 329 319 347 22 11 13 30 19 288 296 303 271 245 226 223 215 218 230 235 242 216 191 198 201 206 186 182 182 185
120 121 136 149 153 161 187 198 225 222 212 215 279 331 336 351 11 34 214 64 166 147 280 266 278 222 224 237 257 238 254 246 229 237 242 215 197 204 197 188 189 183 182
77 71 81 117 171 196 209 211 219 222 220 274 300 328 47 106 132 151 167 99 346 208 239 267 253 217 207 210 289 271 228 284 238 235 241 217 214 200 197 193 191 192 188
68 60 43 22 16 193 197 207 221 230 251 279 303 257 132 120 123 192 240 240 272 279 243 250 255 247 221 224 252 250 31 110 301 264 228 228 219 223 182 197 196 197 195
51 40 33 334 298 288 256 243 230 248 271 292 118 151 163 136 137 214 248 257 252 271 277 267 260 263 258 236 257 271 287 270 220 227 172 212 238 217 202 187 202 195 202
50 32 5 343 318 234 211 217 178 178 171 111 151 142 171 262 21 272 317 286 254 254 263 262 250 251 250 256 258 286 209 254 191 218 178 169 191 213 226 190 183 196 201
56 45 16 43 62 77 93 228 160 129 130 94 133 108 41 5 296 2 17 281 285 267 272 279 267 245 232 243 257 265 227 217 194 209 238 243 196 186 187 199 192 201 202
40 40 45 54 46 35 170 154 147 107 117 123 87 347 318 357 314 344 307 308 291 286 270 274 288 306 253 244 251 253 242 254 239 245 234 187 185 175 184 188 201 204 203
46 39 53 57 66 73 106 124 120 109 133 130 32 4 344 15 324 314 357 355 313 279 297 303 289 283 307 255 246 262 248 239 254 228 219 196 193 185 181 193 191 194 202
46 42 39 51 66 85 103 112 138 147 174 144 80 321 301 233 190 178 143 77 64 89 288 269 264 288 249 264 254 248 257 244 238 236 219 223 226 208 200 185 207 199 196
37 43 40 49 79 86 94 116 128 185 146 285 298 279 272 234 222 196 173 164 93 68 69 62 26 348 326 284 274 246 248 260 239 231 231 237 240 223 219 212 214 210 206
44 37 54 60 67 78 80 139 175 252 250 242 250 264 262 256 232 201 176 134 87 70 50 48 38 23 359 1 299 263 248 256 246 233 229 230 235 236 226 222 225 222 212
23 32 13 29 68 55 68 105 350 323 313 298 333 308 282 267 243 235 102 146 109 63 62 49 40 29 30 26 5 309 260 251 267 252 236 236 234 233 236 229 226 235 231
331 347 346 316 296 143 141 260 258 273 303 338 344 348 8 354 1 334 220 142 152 201 348 21 24 27 19 14 12 6 327 278 256 254 247 234 236 235 234 236 236 233 241
302 308 311 293 274 269 240 246 259 270 290 327 335 351 341 1 21 22 23 168 261 262 247 230 304 325 336 351 346 335 306 296 290 295 247 240 234 236 239 240 239 240 238
306 302 306 281 260 266 279 272 278 287 297 306 318 333 333 331 340 342 323 305 301 310 327 309 288 284 279 299 313 325 354 277 293 303 260 237 236 235 240 243 245 246 246
330 307 307 249 259 249 267 264 270 261 256 290 319 340 338 329 326 315 310 302 297 302 305 298 292 298 294 290 273 290 314 317 293 278 276 251 243 240 238 240 240 243 246
23 346 308 238 252 244 257 257 265 252 233 293 311 330 332 324 314 307 305 299 295 290 285 287 285 280 284 287 290 284 286 295 298 301 263 248 244 241 238 239 239 239 241
Height
5881 5880 5880 5878 5880 5882 5885 5887 5889 5889 5890 5889 5890 5890 5890 5890 5890 5888 5887 5887 5888 5890 5891 5892 5894 5895 5895 5895 5894 5894 5894 5894 5894 5894 5894 5895 5896 5895 5895 5896 5897 5898 5899
5882 5881 5880 5878 5883 5885 5888 5889 5891 5891 5891 5892 5891 5892 5891 5892 5891 5890 5888 5888 5889 5891 5892 5893 5895 5896 5896 5896 5895 5895 5895 5895 5895 5895 5896 5896 5897 5898 5897 5897 5897 5898 5899
5883 5882 5878 5881 5886 5887 5889 5891 5892 5893 5893 5893 5893 5893 5892 5893 5893 5891 5890 5890 5891 5892 5892 5893 5895 5895 5895 5896 5897 5896 5897 5896 5895 5895 5897 5897 5897 5898 5898 5899 5899 5899 5899
5883 5882 5882 5885 5886 5888 5891 5892 5893 5894 5895 5894 5895 5895 5894 5894 5894 5893 5891 5892 5893 5893 5894 5894 5895 5895 5895 5896 5896 5898 5898 5897 5896 5896 5896 5897 5898 5899 5899 5899 5899 5899 5899
5884 5885 5885 5887 5888 5890 5891 5892 5894 5896 5896 5896 5895 5896 5894 5895 5895 5894 5893 5893 5894 5894 5895 5895 5895 5896 5896 5896 5897 5897 5897 5898 5898 5898 5897 5898 5898 5899 5900 5900 5899 5900 5900
5885 5885 5886 5887 5889 5890 5891 5892 5895 5896 5896 5896 5896 5896 5895 5895 5895 5895 5895 5895 5895 5896 5896 5896 5896 5896 5897 5897 5897 5897 5897 5898 5898 5898 5898 5898 5899 5900 5900 5901 5901 5900 5901
5886 5886 5887 5888 5889 5890 5891 5893 5895 5896 5897 5897 5896 5896 5895 5895 5895 5895 5896 5896 5896 5896 5897 5897 5896 5896 5896 5897 5897 5897 5897 5896 5896 5897 5897 5898 5899 5900 5901 5901 5902 5901 5901
5886 5887 5887 5888 5890 5891 5892 5893 5895 5896 5896 5896 5896 5896 5895 5894 5895 5896 5896 5896 5896 5896 5897 5897 5896 5896 5896 5895 5896 5896 5895 5895 5895 5894 5895 5896 5897 5899 5900 5901 5901 5902 5902
5887 5887 5887 5888 5889 5891 5891 5892 5893 5894 5895 5895 5894 5894 5893 5892 5894 5895 5896 5897 5897 5896 5895 5896 5896 5895 5894 5893 5894 5895 5894 5893 5893 5893 5893 5894 5895 5897 5898 5900 5900 5902 5902
5888 5888 5888 5887 5888 5890 5891 5892 5892 5893 5894 5893 5893 5892 5892 5892 5893 5894 5895 5896 5896 5896 5895 5895 5895 5893 5893 5893 5893 5892 5891 5890 5891 5891 5891 5892 5895 5896 5897 5898 5900 5900 5901
5889 5889 5888 5888 5889 5890 5891 5891 5891 5891 5892 5893 5893 5891 5891 5892 5892 5893 5895 5895 5894 5894 5894 5894 5894 5893 5893 5892 5891 5889 5889 5889 5889 5889 5890 5891 5893 5893 5895 5897 5898 5899 5900
5889 5888 5889 5889 5889 5889 5889 5889 5889 5890 5892 5893 5892 5892 5892 5893 5893 5893 5893 5894 5893 5893 5893 5892 5892 5891 5891 5891 5889 5888 5887 5888 5887 5887 5888 5889 5889 5890 5891 5896 5897 5898 5899
5890 5889 5889 5889 5889 5889 5890 5890 5890 5891 5891 5892 5892 5892 5893 5893 5892 5892 5892 5892 5892 5891 5891 5890 5890 5890 5890 5889 5888 5887 5887 5887 5887 5886 5886 5887 5887 5888 5890 5892 5895 5896 5898
5890 5890 5890 5889 5888 5889 5889 5890 5891 5891 5892 5892 5893 5893 5893 5893 5892 5891 5891 5890 5890 5890 5889 5888 5888 5888 5888 5888 5887 5887 5887 5886 5886 5887 5886 5886 5886 5887 5889 5890 5893 5895 5896
5892 5892 5890 5888 5888 5887 5886 5889 5892 5892 5893 5893 5894 5894 5893 5893 5892 5891 5889 5888 5888 5888 5887 5886 5886 5885 5885 5884 5885 5885 5886 5886 5886 5885 5885 5885 5885 5886 5887 5889 5891 5893 5894
5897 5895 5892 5890 5889 5887 5888 5890 5893 5893 5894 5894 5894 5894 5893 5891 5891 5889 5888 5887 5887 5886 5885 5884 5884 5884 5883 5883 5883 5883 5884 5884 5884 5885 5885 5885 5886 5886 5886 5889 5891 5892 5893
5899 5898 5895 5892 5892 5891 5892 5894 5895 5894 5893 5892 5892 5892 5891 5890 5889 5888 5887 5886 5885 5884 5884 5882 5882 5882 5882 5882 5882 5882 5883 5883 5883 5883 5883 5884 5885 5885 5886 5888 5889 5891 5892
5900 5899 5897 5896 5895 5895 5895 5896 5895 5894 5893 5892 5891 5891 5890 5888 5886 5885 5884 5884 5884 5883 5884 5881 5881 5880 5881 5880 5879 5879 5881 5881 5882 5882 5883 5884 5884 5884 5885 5886 5888 5889 5891
5902 5900 5898 5897 5896 5896 5896 5895 5895 5894 5893 5892 5891 5889 5887 5885 5884 5883 5882 5883 5882 5883 5882 5882 5882 5881 5880 5878 5878 5878 5878 5879 5880 5880 5881 5882 5883 5884 5884 5885 5886 5888 5889
5903 5901 5899 5898 5898 5897 5897 5896 5894 5895 5894 5887 5885 5883 5883 5883 5880 5879 5879 5881 5881 5882 5883 5882 5881 5881 5880 5878 5877 5877 5876 5877 5878 5878 5879 5880 5881 5882 5883 5884 5885 5886 5887
5906 5903 5902 5899 5897 5898 5896 5896 5893 5892 5890 5888 5885 5881 5882 5882 5880 5875 5878 5880 5880 5881 5881 5880 5880 5879 5878 5877 5876 5876 5875 5875 5876 5877 5878 5878 5879 5880 5882 5883 5884 5885 5885
5909 5905 5902 5902 5900 5896 5896 5895 5892 5890 5888 5886 5886 5885 5883 5882 5880 5879 5880 5881 5880 5880 5881 5879 5877 5877 5877 5876 5875 5874 5873 5873 5872 5873 5874 5875 5876 5878 5879 5881 5882 5883 5884
5906 5905 5903 5902 5901 5897 5893 5892 5891 5888 5886 5883 5882 5885 5885 5883 5883 5884 5883 5881 5880 5878 5874 5872 5876 5875 5874 5872 5871 5871 5870 5870 5869 5869 5869 5871 5872 5874 5876 5878 5879 5881 5882
5903 5902 5898 5899 5897 5896 5895 5893 5892 5890 5887 5883 5880 5883 5883 5883 5883 5884 5883 5881 5877 5876 5874 5873 5874 5873 5871 5871 5868 5867 5867 5867 5866 5866 5864 5866 5868 5870 5872 5874 5876 5877 5879
5900 5895 5893 5893 5892 5893 5890 5887 5887 5886 5886 5884 5881 5876 5877 5877 5877 5877 5878 5877 5875 5873 5871 5871 5871 5869 5869 5867 5867 5864 5863 5862 5863 5863 5862 5862 5864 5865 5866 5868 5870 5872 5874
5895 5891 5887 5885 5885 5882 5885 5883 5885 5883 5882 5882 5881 5876 5874 5874 5873 5872 5872 5870 5869 5868 5866 5865 5864 5864 5865 5865 5862 5861 5860 5860 5857 5857 5855 5857 5857 5859 5860 5863 5865 5866 5868